logo
Search for airport 
image banner adimage banner adimage banner ad
image banner ad

EYMO - Moletai

Located in Moletai, Lithuania

ICAO - EYMO, IATA -

Data provided by Airmate  

General information

Coordinates: N55°6'46" E25°20'11"
Elevation is 653 feet MSL.
Magnetic variation is 7° East
View others Airports in Utena County

Operational data

Special qualification required
Current time UTC:
Current local time:
Weather at : EYVI - Vilnius/International ( 53 km )
METAR: EYVI 170520Z 31005KT 280V340 9999 BKN005 BKN021 04/03 Q0999 NOSIG
TAF: TAF EYVI 170501Z 1706/1806 VRB05KT 8000 BKN005 BKN015 BECMG 1706/1708 BKN020 TEMPO 1709/1714 BKN015CB TEMPO 1714/1721 5000 SHRA SCT010 BKN015CB TEMPO 1722/1806 BKN005
View NOTAMs / SUP AIP / TFR affecting this airport [VIEW]
Communications frequencies: [VIEW]

Runways:

RWY identifierQFULength (ft)Width (ft)SurfaceLDA (ft)
0669°147666CONC+ASPH
24249°147666CONC+ASPH

Airport contact information

Address: Moletai Lithuania

Satellite view of EYMO